User: anonymous   Login
Location: Banksville Park
(38.5557°N, 75.1182°W)
Time: 17:26:23
(UTC+00:00)
Language:

ISS - Orbit

View from above orbital plane
View from above orbital plane
View from above satellite
View from above satellite

Ground track
Ground track

The orbit data is extracted from the following two-line orbital elements,

1 25544U 98067A   20338.86519968  .00016717  00000-0  10270-3 0  9027
2 25544  51.6414 228.8997 0001866 112.3890 247.7458 15.49160577 18318
Epoch (UTC): 03 December 2020 20:45:53
Eccentricity: 0.0001866
inclination: 51.6414°
perigee height: 418 km
apogee height: 420 km
right ascension of ascending node: 228.8997°
argument of perigee: 112.3890°
revolutions per day: 15.49160577
mean anomaly at epoch: 247.7458°
orbit number at epoch: 1831

The dashed part of the orbit path shows where the satellite is in the earth's shadow,  

DLR